Regional Weather Roundup
Issued by NWS

Home | Current Version | Previous Version | Graphics & Text | Print | Product List | Glossary Off
Versions: 1 2 3 4 5 6 7 8 9 10 11 12 13 14 15 16 17 18 19 20 21 22 23 24 25 26 27 28 29 30 31 32 33 34 35 36 37 38 39 40 41 42 43 44 45 46 47 48 49 50

000
ASUS43 KTOP 031859
RWRKS

WEATHER ROUNDUP FOR KANSAS
NATIONAL WEATHER SERVICE GOODLAND KS
200 PM CDT MON AUG 03 2015

NOTE:  "FAIR" INDICATES FEW OR NO CLOUDS BELOW 12,000 FEET WITH NO
SIGNIFICANT WEATHER AND/OR OBSTRUCTIONS TO VISIBILITY.

KSZ001>006-013>018-027>032-041>047-032000-
NORTHWEST KANSAS

CITY           SKY/WX    TMP DP  RH WIND       PRES   REMARKS
GOODLAND       PTSUNNY   89  54  30 SE13G20   30.01F
HAYS           MOSUNNY   90  64  43 SE7       29.95S
HILL CITY      MOSUNNY   91  68  46 SE10      29.96F HX  95
RUSSELL        MOSUNNY   91  67  44 E3        29.93F
$$

KSZ061>065-074>080-084>089-032000-
SOUTHWEST KANSAS

CITY           SKY/WX    TMP DP  RH WIND       PRES   REMARKS
DODGE CITY     PTSUNNY   88  62  41 SE13G18   29.98F
ELKHART          N/A     86  63  46 E12         N/A
GARDEN CITY    FAIR      87  64  46 SE13      29.97F
GREAT BEND     MOSUNNY   91  68  46 SE6       29.93S HX  95
LIBERAL        SUNNY     88  64  45 S13G20    29.97
PRATT          PTSUNNY   88  64  45 SW10      29.97S
$$

KSZ066>073-081>083-090>101-032000-
SOUTHEAST KANSAS

CITY           SKY/WX    TMP DP  RH WIND       PRES   REMARKS
CHANUTE        PTSUNNY   92  66  42 VRB5      29.95R
COFFEYVILLE    FAIR      93  64  38 SW8       29.94S
HUTCHINSON     MOSUNNY   91  69  48 SW9       29.93F HX  96
MEDICINE LODGE   N/A     88  70  55 SW9       29.93F
NEWTON         SUNNY     90  70  51 W6        29.97S HX  95
PARSONS        MOSUNNY   93  65  39 W6        29.96R HX  95
WICHITA INTL   PTSUNNY   90  70  51 S8        29.93S HX  95
WICHITA JABRA  SUNNY     90  69  50 SW6       29.94S
WINFIELD       MOSUNNY   90  74  59 S5        29.95S HX  99
$$

KSZ007>012-019>026-033>040-048>060-102>105-032000-
NORTHEAST KANSAS

CITY           SKY/WX    TMP DP  RH WIND       PRES   REMARKS
CONCORDIA      SUNNY     87  74  64 E6        29.94S HX  95
EMPORIA        MOSUNNY   92  68  45 VRB3      29.94S HX  96
LAWRENCE       SUNNY     91  69  48 W3        29.92F HX  96
MANHATTAN      SUNNY     93  68  43 E7        29.91F HX  97
OLATHE IND     SUNNY     91  69  48 NW8       29.95F HX  96
OLATHE EXE     SUNNY     91  67  44 NW7       29.94F
SALINA         MOSUNNY   92  69  47 VRB3      29.92F HX  97
TOPEKA BILLARD MOSUNNY   92  71  50 E5        29.92F HX  98
TOPEKA FORBES  SUNNY     93  68  43 VRB7      29.93F HX  97
$$



USA.gov is the U.S. government's official web portal to all federal, state and local government web resources and services.